Location: Chuathbaluk
(61.5726°N, 159.2454°W)
Time: 22:55:20
(UTC+00:00)

Transit 4A - Pass Details

Date: 04 December 2020
Orbit: 864 x 981 km, 66.8° (Epoch: 19 January)

Event Time Altitude Azimuth Distance (km) Brightness Sun altitude
Rises 00:10:50 0° 302° (WNW) 3,695 10.9 3.6°
Reaches altitude 10° 00:13:25 10° 304° (WNW) 2,743 10.3 3.5°
Maximum altitude 00:19:53 85° 32° (NNE) 985 8.1 3.2°
Drops below altitude 10° 00:26:13 10° 123° (ESE) 2,689 10.4 2.8°
Sets 00:28:44 0° 124° (SE) 3,618 11.1 2.7°
